Tracking 19717 objects as of 24-Jun-2019
HD Live streaming from Space Station
objects crossing your sky now

THOR ABLESTAR DEB

Track THOR ABLESTAR DEB now!
10-day predictions


NORAD ID: 1504
Int'l Code: 1965-065A
Perigee: 1,070.3 km
Apogee: 1,166.7 km
Inclination: 89.8 °
Period: 107.5 minutes
Semi major axis: 7489 km
RCS: 0.0138 m2 (small)
Launch date: August 13, 1965
Source: United States (US)
Launch site: AIR FORCE WESTERN TEST RANGE (AFWTR)

Note: This is SATELLITE DEBRIS
aabbcc
Your satellite tracking list
Your tracking list is empty




NASA's NSSDC Master Catalog

Two Line Element Set (TLE):
1  1504U 65065A   19174.68693547 +.00000091 +00000-0 +15132-3 0  9997
2  1504 089.8382 268.5340 0064352 258.0341 222.0923 13.39441300626193
Source of the keplerian elements: AFSPC